{"data":{"norad_id":66956,"intl_designator":"2025-287D","name":"HULIANWANG DIGUI-117","alt_names":[],"object_type":"PAYLOAD","status":"ACTIVE","operator":null,"country":"PRC","launch_date":"2025-12-08","launch_site_code":"TAISC","launch_vehicle":null,"mission":null,"orbit_class":"UNKNOWN","rcs_meters":null,"size_class":null,"mass_kg":null,"dimensions":null,"purposes":[],"wikipedia_slug":null,"has_3d_model":false,"image_url":null,"decayed_at":null,"tle_current":{"epoch":"2026-05-24T22:13:18.612768Z","epoch_age_seconds":82237,"freshness":"FRESH","line1":"1 66956U 25287D   26144.92590987  .00000027  00000+0  28576-4 0  9992","line2":"2 66956  86.4931 290.2395 0003043  94.4166 265.7316 13.24412775 22263","mean_motion":13.24412775,"eccentricity":0.0003043,"inclination_deg":86.4931,"raan_deg":290.2395,"arg_perigee_deg":94.4166,"mean_anomaly_deg":265.7316,"bstar":2.8576e-5,"rev_number":2226,"period_min":108.72743205003,"perigee_km":1165.6153823417,"apogee_km":1170.2079075471,"semimajor_km":7546.0486449444,"source":"CELESTRAK","updated_at":"2026-05-25T13:38:06.626806Z"}}}